VK2ADG-1 Weather Reports


Display with metric or nautical units.
time (UTC)temp
F
wind
direction
speed
MPH
gust
MPH
rain 1hr
in
rain 24hr
in
rain mn
in
humidity
%
barometer
mb
20260509101031 48 11 4.0 4.0 0.00 0.00 0.00 83 1025.3
20260509100029 48 9 3.0 4.0 0.00 0.00 0.00 82 1025.3
20260509095026 49 4 3.0 4.0 0.00 0.00 0.00 81 1025.2
20260509094025 49 4 3.0 4.0 0.00 0.00 0.00 81 1025.1
20260509093022 50 4 2.0 3.0 0.00 0.00 0.00 79 1025.0
20260509092041 51 358 3.0 4.0 0.00 0.00 0.00 78 1025.0
20260509091017 52 3 4.0 5.0 0.00 0.00 0.00 76 1025.0
20260509090035 51 357 3.0 4.0 0.00 0.00 0.00 77 1024.9
20260509085033 52 2 3.0 4.0 0.00 0.00 0.00 75 1024.9
20260509084030 52 355 3.0 4.0 0.00 0.00 0.00 75 1024.6
20260509083028 53 353 3.0 4.0 0.00 0.00 0.00 74 1024.4
20260509082025 54 342 3.0 4.0 0.00 0.00 0.00 72 1024.2
20260509081023 54 346 3.0 5.0 0.00 0.00 0.00 71 1024.1
20260509080020 54 340 3.0 5.0 0.00 0.00 0.00 71 1024.1
20260509075039 55 341 3.0 5.0 0.00 0.00 0.00 70 1023.7
20260509074016 55 340 3.0 6.0 0.00 0.00 0.00 69 1023.8
20260509073035 56 337 4.0 5.0 0.00 0.00 0.00 68 1023.7
20260509072032 56 336 3.0 5.0 0.00 0.00 0.00 67 1023.7
20260509071029 57 330 4.0 5.0 0.00 0.00 0.00 66 1023.4
20260509070028 58 327 4.0 6.0 0.00 0.00 0.00 64 1023.4
20260509065024 59 318 3.0 6.0 0.00 0.00 0.00 63 1023.3
20260509064044 60 303 3.0 5.0 0.00 0.00 0.00 61 1023.1
20260509063020 62 298 3.0 5.0 0.00 0.00 0.00 57 1023.1
20260509062018 61 294 2.0 5.0 0.00 0.00 0.00 56 1023.1
20260509061036 62 279 3.0 5.0 0.00 0.00 0.00 56 1023.0
20260509060033 62 260 2.0 4.0 0.00 0.00 0.00 56 1022.9
20260509055031 62 235 2.0 4.0 0.00 0.00 0.00 57 1022.8
20260509054049 62 252 2.0 4.0 0.00 0.00 0.00 56 1023.0
20260509053026 63 279 2.0 4.0 0.00 0.00 0.00 54 1022.9
20260509052045 62 267 2.0 5.0 0.00 0.00 0.00 54 1022.8
20260509051021 62 296 3.0 6.0 0.00 0.00 0.00 54 1022.8
20260509050018 62 287 3.0 5.0 0.00 0.00 0.00 54 1022.8
20260509045016 62 241 2.0 5.0 0.00 0.00 0.00 56 1022.8
20260509044034 62 296 2.0 6.0 0.00 0.00 0.00 56 1022.6
20260509043032 62 226 2.0 4.0 0.00 0.00 0.00 56 1022.6
20260509042051 61 252 2.0 5.0 0.00 0.00 0.00 57 1022.7
20260509041027 61 226 2.0 6.0 0.00 0.00 0.00 58 1022.7
20260509040025 61 302 2.0 6.0 0.00 0.00 0.00 58 1022.8
20260509035022 62 258 3.0 5.0 0.00 0.00 0.00 56 1022.8
20260509034020 61 242 3.0 5.0 0.00 0.00 0.00 59 1022.9
20260509033018 60 291 3.0 5.0 0.00 0.00 0.00 60 1023.1
20260509032035 60 305 3.0 7.0 0.00 0.00 0.00 62 1023.1
20260509031033 59 239 3.0 6.0 0.00 0.00 0.00 62 1023.1
20260509030030 60 249 2.0 5.0 0.00 0.00 0.00 61 1023.3
20260509025028 60 272 2.0 5.0 0.00 0.00 0.00 64 1023.3
20260509024027 58 277 3.0 6.0 0.00 0.00 0.00 64 1023.5
20260509023024 59 256 3.0 6.0 0.00 0.00 0.00 63 1023.6
20260509022021 58 249 2.0 5.0 0.00 0.00 0.00 66 1023.7
20260509021019 59 265 2.0 4.0 0.00 0.00 0.00 66 1023.9
20260509020016 59 307 3.0 7.0 0.00 0.00 0.00 65 1024.1
20260509015034 57 262 3.0 6.0 0.00 0.00 0.00 71 1024.2
20260509014053 56 266 3.0 5.0 0.00 0.00 0.00 71 1024.3
20260509013030 56 315 3.0 6.0 0.00 0.00 0.00 72 1024.6
20260509012027 55 271 3.0 5.0 0.00 0.00 0.00 76 1024.4
20260509011025 54 290 3.0 5.0 0.00 0.00 0.00 78 1024.5
20260509010023 54 283 3.0 5.0 0.00 0.00 0.00 79 1024.6
20260509005020 54 298 3.0 6.0 0.00 0.00 0.00 79 1024.7
20260509004017 53 308 5.0 9.0 0.00 0.00 0.00 81 1024.8
20260509003035 53 289 3.0 5.0 0.00 0.00 0.00 80 1024.8
20260509002033 52 290 3.0 5.0 0.00 0.00 0.00 82 1024.6
20260509001051 52 309 3.0 5.0 0.00 0.00 0.00 82 1024.7
20260509000028 52 312 4.0 6.0 0.00 0.00 0.00 82 1024.7
20260508235047 50 313 4.0 6.0 0.00 0.00 0.00 84 1024.6
20260508234024 51 324 3.0 6.0 0.00 0.00 0.00 81 1024.6
20260508233022 49 329 4.0 6.0 0.00 0.00 0.00 86 1024.5
20260508232019 49 325 3.0 5.0 0.00 0.00 0.00 83 1024.5
20260508231037 49 350 2.0 4.0 0.00 0.00 0.00 82 1024.6
20260508230034 47 0 3.0 4.0 0.00 0.00 0.00 84 1024.5
20260508225032 46 4 3.0 4.0 0.00 0.00 0.00 86 1024.4
20260508224029 44 347 3.0 5.0 0.00 0.00 0.00 90 1024.3
20260508223027 43 355 3.0 4.0 0.00 0.00 0.00 96 1024.3
20260508222025 42 358 3.0 4.0 0.00 0.00 0.00 98 1024.2
20260508221023 41 9 3.0 4.0 0.00 0.00 0.00 99 1024.1
20260508220041 40 16 3.0 4.0 0.00 0.00 0.00 99 1024.0
20260508215018 38 27 3.0 4.0 0.00 0.00 0.00 99 1023.9
20260508214036 37 26 2.0 3.0 0.00 0.00 0.00 99 1023.9
20260508213055 37 27 3.0 4.0 0.00 0.00 0.00 99 1023.6
20260508212031 36 21 4.0 5.0 0.00 0.00 0.00 99 1023.5
20260508211050 36 8 3.0 4.0 0.00 0.00 0.00 99 1023.2
20260508210026 35 40 3.0 5.0 0.00 0.00 0.00 99 1023.0
20260508205024 36 31 3.0 4.0 0.00 0.00 0.00 99 1022.8
20260508204022 37 12 3.0 4.0 0.00 0.00 0.00 99 1022.6
20260508203020 38 356 4.0 5.0 0.00 0.00 0.00 99 1022.5
20260508202017 38 2 4.0 7.0 0.00 0.00 0.00 99 1022.4
20260508201035 38 15 4.0 6.0 0.00 0.00 0.00 99 1022.3
20260508200032 38 24 4.0 6.0 0.00 0.00 0.00 99 1022.2
20260508195029 39 353 4.0 6.0 0.00 0.00 0.00 99 1022.0
20260508194049 39 353 4.0 5.0 0.00 0.00 0.00 99 1021.9
20260508193025 39 3 4.0 6.0 0.00 0.00 0.00 99 1021.8
20260508192022 39 5 4.0 5.0 0.00 0.00 0.00 99 1021.9
20260508191021 39 13 3.0 4.0 0.00 0.00 0.00 99 1021.8
20260508190019 39 18 3.0 4.0 0.00 0.00 0.00 98 1021.7
20260508185035 40 353 4.0 5.0 0.00 0.00 0.00 99 1021.6
20260508184033 41 5 3.0 5.0 0.00 0.00 0.00 99 1021.5
20260508183030 40 351 4.0 5.0 0.00 0.00 0.00 99 1021.4
20260508182028 41 353 3.0 5.0 0.00 0.00 0.00 99 1021.3
20260508181026 41 346 4.0 5.0 0.00 0.00 0.00 98 1021.3
20260508180045 42 357 4.0 6.0 0.00 0.00 0.00 98 1021.3
20260508175021 42 357 4.0 5.0 0.00 0.00 0.00 98 1021.3
20260508174019 41 356 3.0 5.0 0.00 0.00 0.00 98 1021.3
20260508173037 42 343 4.0 5.0 0.00 0.00 0.00 98 1021.4
20260508172035 42 357 3.0 4.0 0.00 0.00 0.00 98 1021.3
20260508171053 42 356 3.0 4.0 0.00 0.00 0.00 98 1021.3
20260508170029 42 355 3.0 5.0 0.00 0.00 0.00 98 1021.3
20260508165027 43 359 3.0 5.0 0.00 0.00 0.00 98 1021.3
20260508164025 42 1 3.0 4.0 0.00 0.00 0.00 97 1021.2
20260508163023 43 359 3.0 5.0 0.00 0.00 0.00 98 1021.2
20260508162021 43 2 3.0 4.0 0.00 0.00 0.00 97 1021.2
20260508161018 43 2 4.0 5.0 0.00 0.00 0.00 97 1021.0
20260508160035 43 358 3.0 4.0 0.00 0.00 0.00 97 1021.1
20260508155034 43 359 4.0 5.0 0.00 0.00 0.00 97 1021.1
20260508154030 44 353 3.0 5.0 0.00 0.00 0.00 97 1021.2
20260508153030 44 4 4.0 4.0 0.00 0.00 0.00 97 1021.3
20260508152026 44 356 4.0 5.0 0.00 0.00 0.00 96 1021.3
20260508151024 44 360 3.0 4.0 0.00 0.00 0.00 96 1021.5
20260508150104 45 356 3.0 4.0 0.00 0.00 0.00 96 1021.4
20260508145018 45 4 4.0 5.0 0.00 0.00 0.00 96 1021.4
20260508144017 45 360 4.0 5.0 0.00 0.00 0.00 96 1021.4
20260508143116 45 354 4.0 5.0 0.00 0.00 0.00 96 1021.3
20260508142053 46 358 3.0 4.0 0.00 0.00 0.00 96 1021.3
20260508141049 46 347 3.0 4.0 0.00 0.00 0.00 96 1021.2
20260508140027 46 356 3.0 4.0 0.00 0.00 0.00 96 1021.1
20260508135024 46 360 3.0 5.0 0.00 0.00 0.00 96 1021.1
20260508134042 46 360 3.0 4.0 0.00 0.00 0.00 96 1021.2
20260508133020 46 358 4.0 5.0 0.00 0.00 0.00 96 1020.9
20260508132017 46 353 3.0 4.0 0.00 0.00 0.00 95 1021.0
20260508131036 46 351 3.0 4.0 0.00 0.00 0.00 95 1020.8
20260508130033 46 3 3.0 4.0 0.00 0.00 0.00 95 1020.8
20260508125031 46 355 3.0 4.0 0.00 0.00 0.00 95 1021.0
20260508124029 46 358 3.0 5.0 0.00 0.00 0.00 95 1021.1
20260508123027 46 3 3.0 5.0 0.00 0.00 0.00 95 1021.1
20260508122043 46 358 3.0 5.0 0.00 0.00 0.00 95 1021.1
20260508121020 46 8 3.0 4.0 0.00 0.00 0.00 94 1021.1
20260508120039 46 354 3.0 5.0 0.00 0.00 0.00 94 1021.0
20260508115037 47 341 4.0 7.0 0.00 0.00 0.00 94 1021.1
20260508114034 47 338 3.0 5.0 0.00 0.00 0.00 93 1021.1
20260508113031 47 333 3.0 8.0 0.00 0.00 0.00 93 1020.9
20260508112029 47 335 4.0 7.0 0.00 0.00 0.00 92 1020.9
20260508111027 47 326 4.0 9.0 0.00 0.00 0.00 92 1020.8
20260508110025 47 319 5.0 9.0 0.00 0.00 0.00 91 1020.9
20260508105022 47 316 3.0 6.0 0.00 0.00 0.00 91 1020.9
20260508104019 47 352 3.0 6.0 0.00 0.00 0.00 91 1021.0
20260508103059 47 345 3.0 5.0 0.00 0.00 0.00 91 1020.9
20260508102036 47 357 3.0 5.0 0.00 0.00 0.00 91 1020.7